Wahpeton, MN

7:50 AM CDT on April 23, 2017 (GMT -0500)
Stern

Weather History for KBWP - April, 2013

Change the Weather History Date:

Tuesday, April 30, 2013

  Actual Average (KFFM) Record (KFFM)
Temperature  
Mean Temperature 48 °F -  
Max Temperature 59 °F 60 °F 88 °F (1952)
Min Temperature 35 °F 37 °F 15 °F (1966)
Degree Days  
Heating Degree Days 17    
Moisture  
Dew Point 38 °F    
Average Humidity 61    
Maximum Humidity 87    
Minimum Humidity 38    
Precipitation  
Precipitation 0.00 in - - ()
Sea Level Pressure  
Sea Level Pressure 29.63 in    
Wind  
Wind Speed 17 mph (WNW)    
Max Wind Speed 30 mph    
Max Gust Speed 38 mph    
Visibility 10 miles    
Events      
Averages and records for this station are not official NWS values.
T = Trace of Precipitation, MM = Missing Value Source: NWS Daily Summary

Daily Weather History Graph

Daily Weather History Graph

Search for Another Location

Airport or City:

Trip Planner

Search our weather history database for the weather conditions in past years. The results will help you decide how hot, cold, wet, or windy it might be!

Date:

Astronomy

Apr. 30, 2013 Rise Set
Actual Time 6:13 AM CDT 8:34 PM CDT
Civil Twilight 5:40 AM CDT 9:07 PM CDT
Nautical Twilight 4:59 AM CDT 9:49 PM CDT
Astronomical Twilight 4:12 AM CDT 10:36 PM CDT
Moon 1:02 AM CDT (4/30) 10:40 AM CDT (4/30)
Length of Visible Light 15h 26m
Length of Day
14h 20m
Waning Gibbous, 70% of the Moon is Illuminated
Apr 30
Waning Gibbous
May 2
Last Quarter
May 9
New
May 17
First Quarter
May 24
Full

Hourly Weather History & Observations

Time (CDT) Temp. Windchill Dew Point Humidity Pressure Visibility Wind Dir Wind Speed Gust Speed Precip Events Conditions
12:15 AM 55.4 °F - 42.8 °F 63% 29.38 in 10.0 mi East 10.4 mph - N/A   Mostly Cloudy
12:35 AM 55.4 °F - 44.6 °F 67% 29.36 in 10.0 mi ESE 9.2 mph - N/A   Mostly Cloudy
12:55 AM 57.2 °F - 44.6 °F 63% 29.34 in 10.0 mi ESE 13.8 mph 21.9 mph N/A   Mostly Cloudy
1:15 AM 57.2 °F - 44.6 °F 63% 29.32 in 10.0 mi SE 17.3 mph 23.0 mph N/A   Mostly Cloudy
1:35 AM 57.2 °F - 46.4 °F 67% 29.31 in 10.0 mi SE 16.1 mph 20.7 mph N/A   Scattered Clouds
1:55 AM 57.2 °F - 46.4 °F 67% 29.29 in 10.0 mi SE 18.4 mph - N/A   Scattered Clouds
2:15 AM 57.2 °F - 48.2 °F 72% 29.27 in 10.0 mi SE 17.3 mph 23.0 mph N/A   Mostly Cloudy
2:35 AM 59.0 °F - 48.2 °F 67% 29.26 in 10.0 mi SE 18.4 mph 25.3 mph N/A   Mostly Cloudy
2:55 AM 59.0 °F - 48.2 °F 67% 29.24 in 10.0 mi SE 17.3 mph 24.2 mph N/A   Mostly Cloudy
3:15 AM 55.4 °F - 48.2 °F 77% 29.28 in 10.0 mi South 6.9 mph 31.1 mph N/A   Mostly Cloudy
3:35 AM 55.4 °F - 48.2 °F 77% 29.28 in 10.0 mi South 4.6 mph - N/A   Scattered Clouds
3:55 AM 53.6 °F - 48.2 °F 82% 29.28 in 10.0 mi SSW 3.5 mph - N/A   Clear
4:15 AM 53.6 °F - 48.2 °F 82% 29.27 in 10.0 mi South 4.6 mph - N/A   Clear
4:35 AM 50.0 °F - 46.4 °F 87% 29.28 in 10.0 mi WNW 5.8 mph 9.2 mph N/A   Clear
4:55 AM 46.4 °F 38.3 °F 42.8 °F 87% 29.32 in 10.0 mi NNW 23.0 mph 33.4 mph N/A   Clear
5:15 AM 46.4 °F 39.5 °F 42.8 °F 87% 29.33 in 10.0 mi NW 17.3 mph - N/A   Clear
5:35 AM 46.4 °F 39.0 °F 42.8 °F 87% 29.36 in 10.0 mi NW 19.6 mph - N/A   Clear
5:55 AM 44.6 °F 35.7 °F 41.0 °F 87% 29.39 in 10.0 mi WNW 24.2 mph - N/A   Clear
6:15 AM 44.6 °F 37.4 °F 41.0 °F 87% 29.39 in 10.0 mi NW 16.1 mph 25.3 mph N/A   Clear
6:35 AM 46.4 °F 39.5 °F 42.8 °F 87% 29.42 in 10.0 mi WNW 17.3 mph - N/A   Clear
6:55 AM 46.4 °F 39.5 °F 42.8 °F 87% 29.44 in 10.0 mi WNW 17.3 mph - N/A   Scattered Clouds
7:15 AM 48.2 °F - 42.8 °F 82% 29.47 in 10.0 mi WNW 17.3 mph 25.3 mph N/A   Mostly Cloudy
7:35 AM 48.2 °F - 42.8 °F 82% 29.48 in 10.0 mi West 13.8 mph - N/A   Overcast
7:55 AM 48.2 °F - 44.6 °F 87% 29.51 in 10.0 mi West 11.5 mph - N/A   Overcast
8:15 AM 50.0 °F - 44.6 °F 82% 29.51 in 10.0 mi WNW 12.7 mph - N/A   Overcast
8:35 AM 50.0 °F - 44.6 °F 82% 29.52 in 10.0 mi West 13.8 mph - N/A   Overcast
8:55 AM 51.8 °F - 44.6 °F 76% 29.54 in 10.0 mi West 19.6 mph - N/A   Scattered Clouds
9:15 AM 53.6 °F - 42.8 °F 67% 29.55 in 10.0 mi West 19.6 mph 25.3 mph N/A   Clear
9:35 AM 55.4 °F - 39.2 °F 54% 29.56 in 10.0 mi WNW 23.0 mph 33.4 mph N/A   Clear
9:55 AM 55.4 °F - 37.4 °F 51% 29.56 in 10.0 mi WNW 25.3 mph 31.1 mph N/A   Clear
10:15 AM 57.2 °F - 35.6 °F 44% 29.57 in 10.0 mi WNW 23.0 mph 27.6 mph N/A   Clear
10:35 AM 57.2 °F - 33.8 °F 41% 29.58 in 10.0 mi West 23.0 mph 26.5 mph N/A   Clear
10:55 AM 59.0 °F - 35.6 °F 42% 29.60 in 10.0 mi West 21.9 mph 28.8 mph N/A   Clear
11:15 AM 59.0 °F - 35.6 °F 42% 29.60 in 10.0 mi West 25.3 mph 29.9 mph N/A   Clear
11:35 AM 59.0 °F - 33.8 °F 39% 29.61 in 10.0 mi West 24.2 mph 32.2 mph N/A   Clear
11:55 AM 59.0 °F - 33.8 °F 39% 29.62 in 10.0 mi West 29.9 mph 34.5 mph N/A   Clear
12:15 PM 57.2 °F - 33.8 °F 41% 29.64 in 10.0 mi West 28.8 mph 35.7 mph N/A   Clear
12:55 PM 57.2 °F - 35.6 °F 44% 29.65 in 10.0 mi WNW 29.9 mph 38.0 mph N/A   Clear
1:15 PM 57.2 °F - 35.6 °F 44% 29.66 in 10.0 mi West 25.3 mph 34.5 mph N/A   Clear
1:35 PM 57.2 °F - 33.8 °F 41% 29.67 in 10.0 mi WNW 25.3 mph 38.0 mph N/A   Clear
1:55 PM 59.0 °F - 33.8 °F 39% 29.67 in 10.0 mi WNW 29.9 mph 35.7 mph N/A   Clear
2:15 PM 59.0 °F - 33.8 °F 39% 29.68 in 10.0 mi West 28.8 mph 34.5 mph N/A   Clear
2:35 PM 59.0 °F - 33.8 °F 39% 29.69 in 10.0 mi WNW 25.3 mph 35.7 mph N/A   Clear
2:55 PM 59.0 °F - 33.8 °F 39% 29.69 in 10.0 mi WNW 29.9 mph 34.5 mph N/A   Clear
3:35 PM 59.0 °F - 33.8 °F 39% 29.72 in 10.0 mi West 28.8 mph 34.5 mph N/A   Clear
3:55 PM 59.0 °F - 33.8 °F 39% 29.74 in 10.0 mi West 24.2 mph 32.2 mph N/A   Clear
4:15 PM 57.2 °F - 32.0 °F 38% 29.75 in 10.0 mi West 24.2 mph 29.9 mph N/A   Clear
4:35 PM 55.4 °F - 32.0 °F 41% 29.76 in 10.0 mi West 24.2 mph 28.8 mph N/A   Clear
4:55 PM 55.4 °F - 32.0 °F 41% 29.77 in 10.0 mi WNW 23.0 mph 28.8 mph N/A   Clear
5:15 PM 53.6 °F - 32.0 °F 44% 29.79 in 10.0 mi WNW 20.7 mph 28.8 mph N/A   Clear
5:35 PM 53.6 °F - 32.0 °F 44% 29.81 in 10.0 mi West 17.3 mph - N/A   Clear
5:55 PM 53.6 °F - 32.0 °F 44% 29.82 in 10.0 mi West 17.3 mph - N/A   Clear
6:35 PM 51.8 °F - 32.0 °F 47% 29.86 in 10.0 mi West 20.7 mph - N/A   Clear
6:55 PM 51.8 °F - 32.0 °F 47% 29.88 in 10.0 mi WNW 18.4 mph 24.2 mph N/A   Clear
7:15 PM 51.8 °F - 32.0 °F 47% 29.89 in 10.0 mi NW 17.3 mph 25.3 mph N/A   Clear
7:35 PM 51.8 °F - 32.0 °F 47% 29.90 in 10.0 mi NW 20.7 mph 28.8 mph N/A   Clear
7:55 PM 50.0 °F - 32.0 °F 50% 29.92 in 10.0 mi NW 21.9 mph 26.5 mph N/A   Clear
8:15 PM 48.2 °F - 32.0 °F 54% 29.94 in 10.0 mi NW 20.7 mph 26.5 mph N/A   Clear
8:35 PM 46.4 °F 39.2 °F 32.0 °F 57% 29.94 in 10.0 mi NW 18.4 mph 24.2 mph N/A   Clear
8:55 PM 44.6 °F 36.9 °F 32.0 °F 61% 29.96 in 10.0 mi NW 18.4 mph - N/A   Clear
9:15 PM 44.6 °F 36.9 °F 32.0 °F 61% 29.97 in 10.0 mi NW 18.4 mph 23.0 mph N/A   Clear
9:35 PM 42.8 °F 34.8 °F 30.2 °F 61% 29.99 in 10.0 mi NW 17.3 mph 24.2 mph N/A   Clear
9:55 PM 41.0 °F 32.8 °F 30.2 °F 65% 30.00 in 10.0 mi NW 16.1 mph 24.2 mph N/A   Clear
10:15 PM 39.2 °F 28.7 °F 28.4 °F 65% 30.02 in 10.0 mi NW 23.0 mph 27.6 mph N/A   Clear
10:35 PM 37.4 °F 26.9 °F 28.4 °F 70% 30.03 in 10.0 mi NW 20.7 mph 25.3 mph N/A   Clear
10:55 PM 37.4 °F 26.9 °F 28.4 °F 70% 30.05 in 10.0 mi NW 20.7 mph 29.9 mph N/A   Clear
11:15 PM 37.4 °F 28.2 °F 28.4 °F 70% 30.06 in 10.0 mi NW 16.1 mph 21.9 mph N/A   Clear
11:35 PM 37.4 °F 26.9 °F 28.4 °F 70% 30.07 in 10.0 mi NW 20.7 mph - N/A   Clear
11:55 PM 35.6 °F 25.5 °F 26.6 °F 70% 30.07 in 10.0 mi NW 17.3 mph 23.0 mph N/A   Clear